Погода в Хуне

Ливия     29°05′50″N   15°56′07″E
темп.,
°C
ветер,
м/с
пор.,
м/с
влажн.,
%
обл.,
%
осадки,
мм/ч
давл.,
гПа
погр.,
м
10 августа, ср
ср1023:00+29св58350 0.0 1014210
02:00+27юв45510 0.0 1014128
05:00+26в23590 0.0 101331
08:00+26вюв22560 0.0 1014268
11:00+31с22370 0.0 10141095
14:00+35ссз55220 0.0 10132778
17:00+36ссз66190 0.0 10113004
20:00+33ссв57240 0.0 1011131
11 августа, чт
чт1123:00+29в59360 0.0 1014390
02:00+26вюв58460 0.0 1013258
05:00+24в22550 0.0 101332
08:00+26вюв23490 0.0 1014261
11:00+30св22290 0.0 10141017
14:00+34с33220 0.0 10122670
17:00+35ссв34190 0.0 10112960
20:00+33ссз45190 0.0 101165
12 августа, пт
пт1223:00+29св69270 0.0 1013219
02:00+26вюв510400 0.0 1012221
05:00+25юв46410 0.0 1012110
08:00+27юв35350 0.0 1013230
11:00+33вюв12200 0.0 10131536
14:00+36с55160 0.0 10112920
17:00+37с55140 0.0 10093451
20:00+34ссв45180 0.0 101064
13 августа, сб
сб1323:00+29всв611360 0.0 1012259
02:00+27вюв711470 0.0 1012271
05:00+26с33510 0.0 101234
08:00+27св22460 0.0 1014308
11:00+31ссв21290 0.0 10141055
14:00+36ссз44210 0.0 10122243
17:00+36с66210 0.0 10112980
20:00+33с58200 0.0 1011151
14 августа, вс
вс1423:00+28св59440 0.0 1014390
02:00+26в34530 0.0 1013108
05:00+24вюв22620 0.0 101340
08:00+25всв11610 0.0 1014280
11:00+30с23340 0.0 10141128
14:00+34с34200 0.0 10121761
17:00+36ссз56160 0.0 10102338
20:00+33ссв44210 0.0 101146